Location: Squamish
(49.7000°N, 123.1500°W)
Time: 21:50:53
(UTC-07:00)

Daily predictions for brighter satellites

Satellite Brightness Start Highest point End
(mag) Time Altitude Azimuth Time Altitude Azimuth Time Altitude Azimuth
Envisat 3.1 21:28:59 10° SSE 21:34:04 86° ENE 21:39:11 10° NNW
MetOp-B 4.4 21:29:18 10° SE 21:34:31 57° ENE 21:39:46 10° N
Cosmos 1939 Rocket 3.0 21:32:10 10° S 21:36:03 78° WSW 21:40:02 10° NNW
DNEPR-1 R/B 4.1 21:31:50 10° NW 21:37:42 78° NE 21:42:27 10° SE
Cosmos 1624 Rocket 4.4 21:33:48 10° SSW 21:39:05 72° WNW 21:44:27 10° NNE
Cosmos 614 Rocket 4.4 21:38:17 10° NNW 21:43:16 49° ENE 21:48:12 10° SE
Cosmos 1378 Rocket 3.5 21:39:55 10° N 21:44:16 86° E 21:48:35 10° S
Cosmos 2084 3.8 21:41:15 10° S 21:44:44 34° SE 21:48:14 10° ENE
NOSS 2-2 (E) 4.1 21:40:46 10° SW 21:45:06 75° NW 21:50:29 10° NE
Cosmos 1908 Rocket 3.6 21:42:10 10° S 21:46:33 72° E 21:51:00 10° NNE
Cosmos 407 Rocket 4.5 21:42:50 10° NNW 21:47:52 47° WSW 21:52:56 10° S
Cosmos 1733 Rocket 4.0 21:44:17 10° SSW 21:48:35 53° WNW 21:52:54 10° N
Cosmos 2341 Rocket 4.1 21:42:31 10° S 21:48:41 60° E 21:54:50 10° NNE
ATLAS 5 CENTAUR R/B 4.3 21:44:24 10° WNW 21:49:07 24° WSW 21:54:04 10° SSW
deb Chang Zheng 4 3.6 21:45:07 10° NNE 21:49:33 73° ESE 21:53:58 10° S
ERS-1 Rocket 3.9 21:46:31 10° S 21:51:23 48° W 21:56:16 10° NNW
ARGOS 3.5 21:47:15 10° SE 21:52:25 51° ENE 21:57:36 10° N
Cosmos 1140 Rocket 3.5 21:48:25 10° NNW 21:53:36 85° ENE 21:58:46 10° SSE
Cosmos 1242 Rocket 2.7 21:51:30 10° N 21:55:07 60° ENE 21:58:47 10° SSE
YAOGAN 6 2.5 21:53:32 10° SSE 21:57:01 69° ENE 22:00:33 10° N
Timation 2 Rocket 3.9 21:52:14 10° NNW 21:58:18 88° NE 22:04:17 10° SSE
H-2A R/B 3.1 21:54:02 10° SE 21:58:46 33° ENE 22:03:27 10° N
Cosmos 1408 2.5 21:55:19 10° S 21:58:57 71° E 22:02:36 10° NNE
CZ-4 SHROUD 3.1 21:56:20 10° SSE 21:59:27 84° ENE 22:02:33 10° NNW
SL-8 Rocket 4.4 21:56:24 10° SSE 22:02:19 47° E 22:08:14 10° NNE
USA 245 3.4 21:59:05 10° SSE 22:02:28 62° ENE 22:06:49 10° N
Cosmos 962 Rocket 4.5 21:56:49 10° S 22:02:57 74° E 22:09:13 10° NNE
Cosmos 1452 Rocket 3.5 21:57:54 10° SSW 22:03:10 79° ESE 22:08:29 10° NNE
PSLV R/B 3.1 22:00:43 10° S 22:03:39 78° WSW 22:06:38 10° NNW
Cosmos 1825 2.1 22:00:20 10° S 22:04:09 83° E 22:08:00 10° NNE
CZ-4B R/B 3.9 22:01:10 10° NNE 22:05:52 40° E 22:10:25 10° SSE
Nimbus 7 Rocket 4.4 22:01:46 10° NNE 22:07:43 84° ESE 22:13:43 10° SSW
NOSS 5 (C) 4.2 22:04:50 10° SSW 22:08:02 60° SE 22:11:08 10° NE
Cosmos 1833 Rocket 3.0 22:04:56 10° NNW 22:10:30 58° NE 22:15:24 13° SE
Cosmos 1184 Rocket 2.7 22:07:46 10° S 22:11:06 80° E 22:14:28 10° NNE
USA 234 4.5 22:07:43 10° E 22:11:55 18° ESE 22:16:05 10° SSE
SPOT 1/Viking Rocket 3.6 22:08:51 10° SSE 22:14:03 83° ENE 22:19:18 10° NNW
Cosmos 2151 Rocket 4.4 22:10:46 12° SSE 22:14:29 34° E 22:18:35 10° NNE
Cosmos 2154 Rocket 4.2 22:08:50 10° SSW 22:15:03 75° W 22:21:17 10° N
H-2A R/B 3.4 22:11:54 10° SSW 22:15:53 37° W 22:19:49 10° NNW
Cosmos 2278 Rocket 2.2 22:10:55 10° SSW 22:16:34 73° ESE 22:22:16 10° NNE
Landsat 7 4.2 22:15:00 14° SE 22:18:57 50° ENE 22:23:35 10° N
Cosmos 1844 Rocket 3.3 22:13:48 10° SW 22:19:24 61° WNW 22:25:00 10° NNE
SL-8 R/B 3.7 22:16:35 10° WSW 22:21:23 72° S 22:26:12 10° E
Cosmos 1844 4.0 22:15:51 10° SW 22:21:38 75° WNW 22:27:28 10° NNE
ISS -2.8 22:19:58 10° SW 22:22:59 36° SSE 22:26:02 10° E
Cosmos 1812 3.7 22:20:47 10° N 22:24:18 32° ENE 22:26:39 17° SE
IGS 5A 4.4 22:23:39 16° SE 22:26:31 35° ENE 22:30:20 10° N
Meteor 1-14 Rocket 4.3 22:24:32 10° S 22:30:07 62° E 22:35:37 10° NNE
Cosmos 1850 Rocket 4.4 22:26:01 10° NNW 22:31:17 65° WSW 22:36:03 13° S
Cosmos 2082 Rocket 2.2 22:26:24 10° NNW 22:32:09 85° WSW 22:36:43 16° SSE
Cosmos 1238 Rocket 4.3 22:29:39 10° NNW 22:32:26 28° W 22:35:33 10° SSW
Terra 2.2 22:31:14 17° SE 22:34:41 50° ENE 22:39:18 10° N
Okean 1 Rocket 4.5 22:35:20 17° ESE 22:37:18 23° E 22:40:49 10° NE
SL-08 RB Rocket 3.8 22:33:34 14° SSE 22:37:31 83° WSW 22:42:12 10° NNW
SPOT 5 4.4 22:35:53 10° SSW 22:40:48 38° W 22:45:48 10° NNW
Cosmos 2366 rocket 4.1 22:36:36 10° S 22:42:47 67° E 22:49:04 10° NNE
Spot 4 4.3 22:42:42 19° SE 22:45:54 50° ENE 22:50:36 10° N
Okean 2 Rocket 3.7 22:41:58 10° SSW 22:46:20 57° WNW 22:50:42 10° N
Cosmos 2297 3.7 22:46:09 10° SSW 22:51:49 73° ESE 22:57:34 10° NNE
DMSP B5D2-2 4.5 22:48:03 10° NNE 22:53:04 45° E 22:56:18 21° SSE
AVUM R/B 3.4 22:51:42 10° NW 22:55:13 75° WSW 22:56:52 29° SSE
Lacrosse 5 3.7 22:56:43 14° ESE 22:56:43 14° ESE 22:58:17 10° E
Intercosmos 25 3.9 22:52:50 10° SSW 22:56:06 46° WNW 22:59:12 10° N
CZ-4C R/B 3.5 22:55:37 22° S 22:58:08 75° WSW 23:02:19 10° NNW
USA 229 DEB 4.0 22:52:16 10° NW 22:59:15 63° SW 23:04:18 20° SSE
USA 229 4.0 22:52:21 10° NW 22:59:22 64° SW 23:04:24 20° SSE
ASTEX 1 3.9 22:57:05 10° NNE 23:01:50 44° E 23:04:23 25° SSE
Gbstr 26 Del rocket 3.1 22:57:35 10° WNW 23:02:48 74° SSW 23:05:19 25° ESE
Cosmos 1331 Rocket 4.4 23:02:17 23° SSE 23:05:06 43° ESE 23:09:59 10° NE
Cosmos 2218 Rocket 4.3 23:04:13 10° SSW 23:10:36 73° W 23:17:02 10° N
Cosmos 1110 Rocket 4.1 23:08:24 20° S 23:11:51 55° ESE 23:16:56 10° NNE
Cosmos 1400 Rocket 4.2 23:11:14 22° ESE 23:12:01 23° E 23:15:20 10° NE
Cosmos 1536 4.4 23:12:06 20° E 23:12:45 20° E 23:15:43 10° NE
CARTOSAT-1 3.7 23:12:58 24° S 23:15:27 67° WSW 23:19:47 10° NNW
Timation 1 Rocket 4.4 23:10:38 15° S 23:15:31 57° ESE 23:21:24 10° NE
NOSS 3-1 (A) 4.1 23:10:16 10° NW 23:17:35 71° NE 23:23:39 19° SE
APEX 4.3 23:14:51 10° SW 23:19:04 61° NW 23:24:38 10° NNE
Cosmos 1727 Rocket 4.4 23:14:40 10° NNW 23:20:44 60° W 23:25:30 17° SSW
Cosmos 2369 Rocket 3.5 23:23:58 21° ESE 23:24:58 22° E 23:29:09 10° NE
Meteor 1-19 Rocket 4.5 23:19:14 10° N 23:25:04 61° ENE 23:28:09 28° SE
Cosmos 1356 4.3 23:28:08 33° ESE 23:28:25 33° E 23:31:39 10° NNE
Cosmos 1354 Rocket 4.3 23:26:49 10° NNW 23:32:03 60° ENE 23:34:39 29° SE
Okean 1 3.8 23:28:11 10° NNW 23:32:12 56° W 23:34:04 29° SSW
Cosmos 1486 Rocket 4.0 23:27:47 10° NNW 23:33:09 79° WSW 23:35:47 31° SSE
Cosmos 1633 3.7 23:33:32 28° E 23:33:49 29° E 23:37:04 10° NNE
Cosmos 1892 Rocket 4.3 23:32:47 10° N 23:36:56 40° ENE 23:38:22 31° ESE
H-2A R/B 3.0 23:34:32 19° SSW 23:38:05 44° W 23:43:08 10° NNW
ATLAS 2AS CENTAUR R/B 3.8 23:30:41 10° NW 23:38:38 51° NE 23:46:08 11° ESE
Meteor 1-20 Rocket 4.4 23:35:55 17° SSW 23:40:15 72° WNW 23:45:47 10° N
NOSS 8 (H) 4.5 23:43:32 43° SSW 23:44:33 69° SE 23:48:37 10° NE
Cosmos 2084 Rocket 3.7 23:42:59 10° NW 23:46:48 56° NE 23:48:19 33° ESE
NOSS 3-1 (C) 4.0 23:40:23 10° NW 23:47:47 76° SW 23:52:32 28° SSE
Cosmos 1833 Rocket 4.1 23:49:26 10° NW 23:54:05 27° WSW 23:57:06 17° SSW
